QPF
0.03 0.03 0.04 0.05 0.05 0.06 0.07 0.08 0.07 0.07 0.08 0.07 0.06 0.05 0.05 0.06 0.08 0.10 0.10 0.12 0.14 0.15 0.15 0.15 0.16 0.17 0.19 0.19 0.19 0.18 0.16 0.14 0.12 0.11 0.09 0.08 0.06 0.04 0.03 0.02 0.01 0.01 0.00
0.04 0.03 0.04 0.05 0.08 0.08 0.07 0.08 0.08 0.07 0.07 0.08 0.06 0.06 0.06 0.07 0.07 0.08 0.07 0.07 0.08 0.09 0.09 0.10 0.11 0.11 0.12 0.12 0.12 0.12 0.11 0.09 0.08 0.08 0.08 0.06 0.05 0.03 0.02 0.01 0.00 0.00 0.00
0.04 0.04 0.06 0.09 0.12 0.12 0.08 0.09 0.09 0.07 0.08 0.09 0.08 0.08 0.07 0.07 0.06 0.05 0.05 0.04 0.04 0.05 0.06 0.06 0.07 0.07 0.07 0.07 0.06 0.06 0.06 0.06 0.05 0.04 0.04 0.03 0.02 0.02 0.02 0.01 0.00 0.00 0.00
0.06 0.05 0.06 0.08 0.11 0.13 0.11 0.09 0.09 0.08 0.08 0.10 0.11 0.10 0.08 0.07 0.06 0.05 0.06 0.05 0.04 0.04 0.04 0.03 0.04 0.04 0.04 0.03 0.03 0.02 0.02 0.02 0.02 0.01 0.01 0.01 0.01 0.01 0.01 0.01 0.01 0.01 0.00
0.10 0.08 0.07 0.07 0.09 0.10 0.09 0.08 0.08 0.08 0.08 0.08 0.08 0.09 0.08 0.06 0.05 0.06 0.08 0.06 0.05 0.04 0.04 0.03 0.03 0.03 0.03 0.02 0.01 0.01 0.01 0.01 0.00 0.00 0.01 0.01 0.01 0.01 0.01 0.01 0.01 0.01 0.01
0.12 0.11 0.12 0.11 0.10 0.09 0.07 0.07 0.07 0.07 0.06 0.06 0.06 0.06 0.06 0.05 0.04 0.05 0.06 0.06 0.04 0.03 0.03 0.02 0.02 0.02 0.01 0.01 0.00 0.00 0.00 0.00 0.00 0.00 0.00 0.01 0.01 0.01 0.00 0.00 0.00 0.00 0.01
0.13 0.15 0.16 0.14 0.11 0.09 0.07 0.05 0.06 0.07 0.05 0.04 0.03 0.03 0.04 0.04 0.03 0.03 0.03 0.02 0.02 0.02 0.01 0.01 0.01 0.01 0.00 0.00 0.00 0.00 0.00 0.00 0.00 0.00 0.00 0.00 0.00 0.00 0.00 0.00 0.00 0.00 0.01
0.12 0.16 0.19 0.15 0.11 0.09 0.07 0.05 0.05 0.05 0.05 0.05 0.04 0.02 0.02 0.02 0.02 0.01 0.01 0.01 0.01 0.01 0.01 0.01 0.00 0.00 0.00 0.00 0.00 0.00 0.00 0.00 0.00 0.00 0.00 0.00 0.00 0.00 0.00 0.00 0.00 0.00 0.01
0.10 0.12 0.15 0.14 0.12 0.10 0.08 0.06 0.06 0.04 0.03 0.04 0.04 0.03 0.02 0.02 0.01 0.00 0.00 0.00 0.00 0.00 0.00 0.00 0.00 0.00 0.00 0.00 0.00 0.00 0.00 0.00 0.00 0.00 0.00 0.00 0.00 0.00 0.00 0.00 0.00 0.01 0.01
0.09 0.09 0.09 0.11 0.11 0.10 0.08 0.06 0.06 0.04 0.03 0.03 0.04 0.03 0.02 0.01 0.00 0.00 0.00 0.00 0.00 0.00 0.00 0.00 0.00 0.00 0.00 0.00 0.00 0.00 0.00 0.00 0.00 0.00 0.00 0.00 0.00 0.00 0.00 0.01 0.01 0.01 0.01
0.05 0.07 0.08 0.09 0.09 0.09 0.08 0.07 0.06 0.04 0.03 0.03 0.03 0.03 0.03 0.01 0.00 0.00 0.00 0.00 0.00 0.00 0.00 0.00 0.00 0.00 0.00 0.00 0.00 0.00 0.00 0.00 0.00 0.00 0.00 0.00 0.00 0.00 0.00 0.00 0.00 0.00 0.01
0.04 0.06 0.07 0.06 0.06 0.07 0.07 0.07 0.05 0.04 0.04 0.04 0.03 0.02 0.02 0.01 0.01 0.00 0.00 0.00 0.00 0.00 0.00 0.00 0.00 0.00 0.00 0.00 0.00 0.00 0.00 0.00 0.00 0.00 0.00 0.00 0.00 0.00 0.00 0.00 0.00 0.00 0.01
0.04 0.05 0.05 0.04 0.05 0.06 0.06 0.05 0.05 0.04 0.03 0.03 0.03 0.02 0.01 0.01 0.00 0.00 0.00 0.00 0.00 0.00 0.00 0.00 0.00 0.00 0.00 0.00 0.00 0.00 0.00 0.00 0.00 0.00 0.00 0.00 0.00 0.00 0.00 0.00 0.00 0.00 0.00
0.04 0.04 0.04 0.04 0.04 0.04 0.04 0.04 0.04 0.03 0.02 0.02 0.02 0.02 0.01 0.01 0.01 0.00 0.00 0.00 0.00 0.00 0.00 0.00 0.00 0.00 0.00 0.00 0.00 0.00 0.00 0.00 0.00 0.00 0.00 0.00 0.00 0.00 0.00 0.00 0.00 0.00 0.00
0.03 0.03 0.03 0.03 0.03 0.03 0.02 0.02 0.02 0.02 0.01 0.01 0.01 0.01 0.01 0.01 0.00 0.00 0.00 0.00 0.00 0.00 0.00 0.00 0.00 0.00 0.00 0.00 0.00 0.00 0.00 0.00 0.00 0.00 0.00 0.00 0.00 0.00 0.00 0.00 0.00 0.00 0.00
0.03 0.03 0.02 0.02 0.02 0.01 0.01 0.01 0.01 0.01 0.00 0.00 0.00 0.00 0.00 0.00 0.00 0.00 0.00 0.00 0.00 0.00 0.00 0.00 0.00 0.00 0.00 0.00 0.00 0.00 0.00 0.00 0.00 0.00 0.00 0.00 0.00 0.00 0.00 0.00 0.00 0.00 0.00
0.03 0.02 0.01 0.01 0.01 0.01 0.01 0.01 0.01 0.00 0.00 0.00 0.00 0.00 0.00 0.00 0.00 0.00 0.00 0.00 0.00 0.00 0.00 0.00 0.00 0.00 0.00 0.00 0.00 0.00 0.00 0.00 0.00 0.00 0.00 0.00 0.00 0.00 0.00 0.00 0.00 0.00 0.00
0.01 0.01 0.01 0.01 0.00 0.00 0.01 0.01 0.00 0.00 0.00 0.00 0.00 0.00 0.00 0.00 0.00 0.00 0.00 0.00 0.00 0.00 0.00 0.00 0.00 0.00 0.00 0.00 0.00 0.00 0.00 0.00 0.00 0.00 0.00 0.00 0.00 0.00 0.00 0.00 0.00 0.00 0.00
0.01 0.00 0.00 0.00 0.00 0.00 0.00 0.00 0.00 0.00 0.00 0.00 0.00 0.00 0.00 0.00 0.00 0.00 0.00 0.00 0.00 0.00 0.00 0.00 0.00 0.00 0.00 0.00 0.00 0.00 0.00 0.00 0.00 0.00 0.00 0.00 0.00 0.00 0.00 0.00 0.00 0.00 0.00
0.01 0.00 0.00 0.00 0.00 0.00 0.00 0.00 0.00 0.00 0.00 0.00 0.00 0.00 0.00 0.00 0.00 0.00 0.00 0.00 0.00 0.00 0.00 0.00 0.00 0.00 0.00 0.00 0.00 0.00 0.00 0.00 0.00 0.00 0.00 0.00 0.00 0.00 0.00 0.00 0.00 0.00 0.00
0.00 0.00 0.00 0.00 0.00 0.00 0.00 0.00 0.00 0.00 0.00 0.00 0.00 0.00 0.00 0.00 0.00 0.00 0.00 0.00 0.00 0.00 0.00 0.00 0.00 0.00 0.00 0.00 0.00 0.00 0.00 0.00 0.00 0.00 0.00 0.00 0.00 0.00 0.00 0.00 0.00 0.00 0.00
0.00 0.00 0.00 0.00 0.00 0.00 0.00 0.00 0.00 0.00 0.00 0.00 0.00 0.00 0.00 0.00 0.00 0.00 0.00 0.00 0.00 0.00 0.00 0.00 0.00 0.00 0.00 0.00 0.00 0.00 0.00 0.00 0.00 0.00 0.00 0.00 0.00 0.00 0.00 0.00 0.00 0.00 0.00
0.00 0.00 0.00 0.00 0.00 0.00 0.00 0.00 0.00 0.00 0.00 0.00 0.00 0.00 0.00 0.00 0.00 0.00 0.00 0.00 0.00 0.00 0.00 0.00 0.00 0.00 0.00 0.00 0.00 0.00 0.00 0.00 0.00 0.00 0.00 0.00 0.00 0.00 0.00 0.00 0.00 0.00 0.00
0.00 0.00 0.00 0.00 0.00 0.00 0.00 0.00 0.00 0.00 0.00 0.00 0.00 0.00 0.00 0.00 0.00 0.00 0.00 0.00 0.00 0.00 0.00 0.00 0.00 0.00 0.00 0.00 0.00 0.00 0.00 0.00 0.00 0.00 0.00 0.00 0.00 0.00 0.00 0.00 0.00 0.00 0.00
0.00 0.00 0.00 0.00 0.00 0.00 0.00 0.00 0.00 0.00 0.00 0.00 0.00 0.00 0.00 0.00 0.00 0.00 0.00 0.00 0.00 0.00 0.00 0.00 0.00 0.00 0.00 0.00 0.00 0.00 0.00 0.00 0.00 0.00 0.00 0.00 0.00 0.00 0.00 0.00 0.00 0.00 0.00
0.00 0.00 0.00 0.00 0.00 0.00 0.00 0.00 0.00 0.00 0.00 0.00 0.00 0.00 0.00 0.00 0.00 0.00 0.00 0.00 0.00 0.00 0.00 0.00 0.00 0.00 0.00 0.00 0.00 0.00 0.00 0.00 0.00 0.00 0.00 0.00 0.00 0.00 0.00 0.00 0.00 0.00 0.00
MSLP
1014.51 1014.68 1014.93 1015.24 1015.57 1015.90 1016.21 1016.47 1016.67 1016.80 1016.85 1016.82 1016.74 1016.62 1016.51 1016.43 1016.45 1016.60 1016.90 1017.37 1018.00 1018.74 1019.56 1020.39 1021.18 1021.88 1022.48 1022.95 1023.31 1023.60 1023.84 1024.08 1024.34 1024.65 1025.01 1025.39 1025.79 1026.17 1026.51 1026.79 1027.02 1027.19 1027.32
1015.08 1015.23 1015.45 1015.72 1016.01 1016.30 1016.57 1016.80 1016.99 1017.12 1017.19 1017.20 1017.17 1017.11 1017.06 1017.04 1017.10 1017.27 1017.57 1018.00 1018.56 1019.22 1019.94 1020.66 1021.34 1021.95 1022.46 1022.86 1023.18 1023.43 1023.65 1023.88 1024.14 1024.43 1024.77 1025.14 1025.50 1025.83 1026.12 1026.34 1026.50 1026.61 1026.68
1015.72 1015.86 1016.04 1016.27 1016.51 1016.74 1016.97 1017.17 1017.34 1017.47 1017.56 1017.62 1017.63 1017.64 1017.64 1017.68 1017.77 1017.95 1018.24 1018.63 1019.13 1019.70 1020.32 1020.94 1021.53 1022.05 1022.48 1022.83 1023.11 1023.35 1023.56 1023.79 1024.05 1024.34 1024.67 1025.01 1025.33 1025.62 1025.84 1026.00 1026.08 1026.10 1026.10
1016.37 1016.49 1016.66 1016.84 1017.04 1017.23 1017.42 1017.59 1017.74 1017.88 1017.99 1018.08 1018.15 1018.21 1018.27 1018.34 1018.47 1018.66 1018.93 1019.28 1019.71 1020.21 1020.74 1021.27 1021.77 1022.22 1022.60 1022.92 1023.18 1023.40 1023.62 1023.86 1024.12 1024.42 1024.73 1025.05 1025.34 1025.57 1025.74 1025.82 1025.83 1025.77 1025.69
1016.96 1017.10 1017.26 1017.42 1017.59 1017.75 1017.91 1018.06 1018.21 1018.36 1018.49 1018.62 1018.73 1018.84 1018.94 1019.06 1019.20 1019.39 1019.64 1019.96 1020.34 1020.76 1021.22 1021.68 1022.12 1022.52 1022.86 1023.15 1023.41 1023.64 1023.86 1024.11 1024.37 1024.66 1024.96 1025.26 1025.51 1025.70 1025.82 1025.84 1025.78 1025.65 1025.50
1017.49 1017.66 1017.83 1018.00 1018.16 1018.31 1018.46 1018.61 1018.76 1018.92 1019.08 1019.24 1019.39 1019.54 1019.67 1019.82 1019.98 1020.17 1020.40 1020.69 1021.02 1021.40 1021.80 1022.21 1022.60 1022.96 1023.29 1023.57 1023.82 1024.04 1024.27 1024.51 1024.77 1025.04 1025.32 1025.59 1025.81 1025.96 1026.03 1026.01 1025.90 1025.72 1025.51
1017.99 1018.20 1018.41 1018.60 1018.77 1018.93 1019.08 1019.24 1019.41 1019.59 1019.77 1019.96 1020.14 1020.30 1020.47 1020.62 1020.79 1020.98 1021.20 1021.46 1021.77 1022.11 1022.48 1022.85 1023.22 1023.56 1023.86 1024.13 1024.37 1024.58 1024.80 1025.01 1025.25 1025.49 1025.73 1025.96 1026.14 1026.26 1026.30 1026.24 1026.11 1025.90 1025.65
1018.51 1018.78 1019.03 1019.25 1019.45 1019.63 1019.81 1019.98 1020.17 1020.37 1020.57 1020.77 1020.96 1021.14 1021.31 1021.47 1021.64 1021.82 1022.03 1022.27 1022.56 1022.88 1023.23 1023.58 1023.93 1024.25 1024.54 1024.79 1025.00 1025.19 1025.36 1025.54 1025.72 1025.91 1026.10 1026.28 1026.42 1026.50 1026.51 1026.45 1026.30 1026.09 1025.83
1019.11 1019.42 1019.71 1019.98 1020.21 1020.42 1020.62 1020.83 1021.03 1021.24 1021.44 1021.65 1021.84 1022.02 1022.18 1022.33 1022.49 1022.66 1022.86 1023.09 1023.37 1023.67 1024.00 1024.34 1024.67 1024.97 1025.24 1025.45 1025.63 1025.77 1025.89 1026.00 1026.11 1026.23 1026.36 1026.47 1026.56 1026.61 1026.60 1026.53 1026.39 1026.19 1025.95
1019.79 1020.15 1020.47 1020.77 1021.04 1021.28 1021.51 1021.74 1021.95 1022.17 1022.38 1022.58 1022.76 1022.92 1023.06 1023.20 1023.34 1023.49 1023.67 1023.89 1024.15 1024.44 1024.75 1025.07 1025.38 1025.65 1025.88 1026.05 1026.18 1026.26 1026.31 1026.34 1026.38 1026.41 1026.46 1026.51 1026.54 1026.55 1026.53 1026.46 1026.33 1026.16 1025.94
1020.54 1020.91 1021.27 1021.59 1021.88 1022.16 1022.41 1022.66 1022.89 1023.11 1023.32 1023.51 1023.67 1023.81 1023.94 1024.05 1024.16 1024.29 1024.45 1024.64 1024.87 1025.14 1025.43 1025.71 1025.98 1026.22 1026.40 1026.53 1026.59 1026.61 1026.58 1026.54 1026.49 1026.45 1026.42 1026.40 1026.38 1026.36 1026.31 1026.24 1026.13 1025.98 1025.79
1021.28 1021.66 1022.02 1022.35 1022.67 1022.97 1023.25 1023.51 1023.77 1024.00 1024.21 1024.39 1024.55 1024.67 1024.77 1024.85 1024.94 1025.04 1025.16 1025.32 1025.52 1025.74 1025.99 1026.23 1026.45 1026.63 1026.77 1026.83 1026.84 1026.79 1026.71 1026.60 1026.48 1026.37 1026.27 1026.20 1026.14 1026.08 1026.02 1025.94 1025.83 1025.70 1025.53
1021.93 1022.29 1022.65 1022.98 1023.31 1023.63 1023.94 1024.23 1024.51 1024.76 1024.98 1025.17 1025.32 1025.44 1025.52 1025.59 1025.65 1025.72 1025.80 1025.91 1026.06 1026.23 1026.41 1026.59 1026.75 1026.88 1026.95 1026.97 1026.93 1026.84 1026.71 1026.55 1026.39 1026.24 1026.10 1025.98 1025.88 1025.79 1025.71 1025.62 1025.52 1025.39 1025.24
1022.42 1022.75 1023.08 1023.41 1023.75 1024.08 1024.41 1024.74 1025.04 1025.33 1025.58 1025.79 1025.96 1026.08 1026.17 1026.22 1026.26 1026.30 1026.34 1026.40 1026.48 1026.58 1026.69 1026.80 1026.89 1026.96 1026.98 1026.95 1026.88 1026.77 1026.62 1026.45 1026.28 1026.11 1025.95 1025.81 1025.69 1025.58 1025.48 1025.37 1025.26 1025.12 1024.97
1022.71 1023.00 1023.30 1023.62 1023.95 1024.30 1024.65 1025.01 1025.35 1025.68 1025.97 1026.22 1026.42 1026.57 1026.67 1026.72 1026.75 1026.76 1026.76 1026.76 1026.77 1026.80 1026.83 1026.86 1026.88 1026.89 1026.87 1026.82 1026.74 1026.63 1026.49 1026.34 1026.19 1026.03 1025.88 1025.74 1025.61 1025.49 1025.36 1025.23 1025.10 1024.94 1024.78
1022.82 1023.06 1023.33 1023.62 1023.94 1024.30 1024.67 1025.05 1025.44 1025.81 1026.15 1026.44 1026.69 1026.87 1026.99 1027.06 1027.09 1027.07 1027.04 1026.99 1026.93 1026.88 1026.84 1026.80 1026.76 1026.72 1026.68 1026.62 1026.55 1026.47 1026.37 1026.27 1026.15 1026.03 1025.91 1025.79 1025.65 1025.51 1025.37 1025.21 1025.04 1024.85 1024.66
1022.81 1023.01 1023.24 1023.50 1023.81 1024.15 1024.54 1024.94 1025.35 1025.75 1026.14 1026.48 1026.77 1027.00 1027.15 1027.24 1027.27 1027.24 1027.18 1027.08 1026.97 1026.86 1026.75 1026.66 1026.57 1026.51 1026.45 1026.41 1026.37 1026.34 1026.30 1026.25 1026.19 1026.12 1026.03 1025.92 1025.79 1025.63 1025.45 1025.26 1025.05 1024.83 1024.60
1022.78 1022.93 1023.13 1023.36 1023.64 1023.96 1024.34 1024.74 1025.16 1025.59 1026.00 1026.38 1026.71 1026.97 1027.16 1027.27 1027.31 1027.28 1027.19 1027.07 1026.92 1026.76 1026.61 1026.47 1026.37 1026.30 1026.25 1026.24 1026.25 1026.27 1026.29 1026.31 1026.31 1026.28 1026.21 1026.11 1025.97 1025.79 1025.58 1025.34 1025.08 1024.82 1024.55
1022.79 1022.92 1023.07 1023.27 1023.51 1023.80 1024.15 1024.53 1024.95 1025.38 1025.80 1026.20 1026.55 1026.83 1027.05 1027.18 1027.23 1027.20 1027.11 1026.97 1026.79 1026.62 1026.44 1026.30 1026.19 1026.13 1026.12 1026.15 1026.21 1026.29 1026.37 1026.44 1026.48 1026.48 1026.43 1026.32 1026.15 1025.94 1025.68 1025.39 1025.09 1024.78 1024.47
1022.91 1023.01 1023.13 1023.28 1023.48 1023.73 1024.03 1024.37 1024.76 1025.16 1025.58 1025.97 1026.33 1026.63 1026.86 1027.00 1027.06 1027.04 1026.96 1026.82 1026.64 1026.46 1026.30 1026.17 1026.08 1026.05 1026.08 1026.15 1026.27 1026.40 1026.53 1026.63 1026.70 1026.71 1026.65 1026.51 1026.31 1026.05 1025.74 1025.40 1025.04 1024.69 1024.35
1023.10 1023.19 1023.28 1023.39 1023.54 1023.73 1023.98 1024.27 1024.61 1024.98 1025.37 1025.74 1026.09 1026.39 1026.62 1026.77 1026.85 1026.84 1026.77 1026.64 1026.49 1026.33 1026.19 1026.09 1026.04 1026.05 1026.13 1026.25 1026.41 1026.58 1026.74 1026.87 1026.94 1026.94 1026.85 1026.68 1026.43 1026.11 1025.75 1025.35 1024.95 1024.56 1024.19
1023.34 1023.41 1023.47 1023.55 1023.65 1023.79 1023.98 1024.22 1024.51 1024.83 1025.17 1025.52 1025.84 1026.13 1026.36 1026.52 1026.60 1026.61 1026.55 1026.45 1026.33 1026.21 1026.11 1026.05 1026.05 1026.12 1026.24 1026.41 1026.61 1026.81 1026.99 1027.12 1027.18 1027.15 1027.03 1026.82 1026.51 1026.15 1025.73 1025.30 1024.86 1024.44 1024.05
1023.54 1023.60 1023.65 1023.69 1023.75 1023.84 1023.98 1024.17 1024.40 1024.67 1024.98 1025.29 1025.59 1025.86 1026.07 1026.23 1026.32 1026.35 1026.32 1026.25 1026.16 1026.08 1026.03 1026.03 1026.08 1026.19 1026.36 1026.58 1026.81 1027.03 1027.22 1027.34 1027.38 1027.33 1027.17 1026.92 1026.58 1026.17 1025.72 1025.26 1024.80 1024.36 1023.96
1023.64 1023.70 1023.73 1023.75 1023.78 1023.83 1023.93 1024.07 1024.26 1024.49 1024.75 1025.03 1025.30 1025.55 1025.76 1025.91 1026.01 1026.05 1026.04 1026.00 1025.95 1025.92 1025.91 1025.95 1026.06 1026.21 1026.43 1026.67 1026.93 1027.16 1027.35 1027.48 1027.51 1027.43 1027.26 1026.98 1026.62 1026.19 1025.74 1025.26 1024.80 1024.37 1023.97
1023.61 1023.66 1023.68 1023.69 1023.70 1023.73 1023.79 1023.90 1024.05 1024.25 1024.48 1024.73 1024.98 1025.21 1025.40 1025.55 1025.65 1025.70 1025.71 1025.69 1025.67 1025.67 1025.70 1025.79 1025.93 1026.12 1026.36 1026.63 1026.91 1027.16 1027.36 1027.48 1027.51 1027.43 1027.25 1026.98 1026.62 1026.21 1025.76 1025.31 1024.86 1024.44 1024.06
1023.44 1023.49 1023.51 1023.51 1023.50 1023.52 1023.56 1023.64 1023.77 1023.95 1024.15 1024.37 1024.60 1024.80 1024.98 1025.13 1025.22 1025.27 1025.29 1025.30 1025.30 1025.32 1025.38 1025.49 1025.66 1025.88 1026.14 1026.43 1026.71 1026.98 1027.18 1027.32 1027.36 1027.30 1027.13 1026.88 1026.55 1026.17 1025.76 1025.34 1024.93 1024.54 1024.17
Thickness
5610 5611 5612 5613 5614 5615 5615 5615 5615 5616 5618 5619 5621 5623 5625 5626 5627 5629 5630 5632 5633 5633 5634 5633 5631 5630 5629 5627 5625 5622 5620 5618 5610 5601 5596 5590 5586 5584 5580 5578 5576 5572 5568
5600 5600 5601 5602 5603 5603 5603 5603 5605 5606 5608 5610 5612 5614 5615 5616 5618 5619 5621 5622 5623 5623 5623 5623 5622 5620 5619 5618 5617 5615 5612 5609 5605 5596 5589 5584 5579 5576 5573 5571 5570 5568 5564
5590 5590 5590 5591 5591 5591 5592 5592 5594 5596 5598 5600 5602 5604 5604 5605 5607 5609 5611 5612 5613 5614 5614 5613 5612 5611 5610 5609 5608 5606 5603 5600 5595 5589 5583 5578 5574 5570 5567 5565 5563 5559 5557
5580 5580 5579 5579 5579 5579 5581 5582 5584 5586 5588 5589 5591 5592 5593 5595 5597 5598 5600 5601 5602 5602 5602 5602 5602 5601 5600 5600 5598 5595 5593 5590 5585 5582 5577 5572 5567 5563 5562 5560 5557 5554 5551
5568 5568 5567 5567 5568 5569 5571 5572 5573 5576 5578 5579 5580 5581 5582 5584 5585 5587 5589 5590 5591 5591 5590 5589 5588 5587 5587 5588 5589 5586 5584 5582 5579 5575 5570 5566 5561 5557 5556 5553 5550 5547 5543
5557 5557 5556 5557 5557 5558 5560 5562 5563 5565 5567 5568 5569 5570 5571 5570 5571 5574 5578 5579 5579 5579 5579 5578 5577 5576 5574 5574 5573 5572 5572 5572 5571 5568 5564 5558 5552 5550 5546 5545 5543 5541 5538
5547 5547 5547 5548 5548 5549 5551 5552 5554 5555 5556 5557 5557 5558 5558 5557 5559 5562 5565 5568 5569 5568 5568 5569 5569 5565 5566 5564 5561 5560 5558 5556 5555 5556 5554 5549 5544 5540 5538 5537 5533 5532 5529
5537 5538 5538 5539 5539 5540 5542 5543 5545 5546 5547 5548 5548 5547 5547 5546 5548 5551 5554 5557 5558 5558 5558 5558 5557 5556 5556 5556 5555 5552 5549 5545 5544 5544 5540 5537 5534 5530 5528 5527 5525 5524 5523
5529 5529 5530 5531 5531 5532 5533 5534 5535 5537 5538 5540 5539 5539 5538 5537 5538 5542 5546 5548 5547 5547 5547 5546 5547 5544 5541 5543 5545 5542 5539 5535 5532 5529 5527 5525 5522 5520 5518 5521 5521 5521 5520
5522 5522 5522 5524 5525 5525 5526 5526 5527 5529 5530 5532 5531 5531 5530 5529 5529 5533 5538 5542 5541 5540 5538 5535 5532 5532 5531 5532 5536 5534 5531 5529 5527 5524 5520 5518 5516 5513 5511 5511 5514 5514 5513
5516 5516 5516 5517 5517 5518 5519 5519 5521 5523 5523 5524 5524 5523 5523 5522 5522 5525 5529 5535 5535 5535 5534 5531 5524 5521 5521 5522 5524 5524 5520 5520 5521 5520 5518 5516 5514 5511 5510 5508 5507 5507 5507
5511 5511 5511 5511 5513 5513 5513 5514 5515 5517 5517 5518 5519 5519 5518 5517 5515 5516 5518 5520 5523 5526 5526 5523 5516 5513 5513 5513 5514 5512 5512 5512 5517 5515 5513 5511 5510 5508 5506 5504 5502 5501 5499
5506 5507 5507 5507 5508 5508 5509 5510 5511 5513 5516 5516 5516 5517 5516 5514 5510 5509 5511 5512 5513 5516 5514 5509 5508 5507 5507 5507 5505 5506 5507 5511 5511 5510 5508 5506 5505 5502 5501 5500 5500 5498 5498
5503 5503 5503 5504 5505 5505 5506 5508 5510 5512 5513 5514 5514 5513 5512 5512 5511 5510 5510 5509 5507 5509 5509 5504 5503 5503 5504 5502 5502 5505 5506 5505 5505 5504 5503 5502 5501 5500 5499 5499 5498 5498 5499
5501 5501 5502 5502 5502 5502 5502 5501 5504 5503 5505 5509 5510 5510 5510 5508 5500 5498 5504 5507 5507 5505 5505 5507 5507 5507 5506 5505 5504 5503 5502 5502 5501 5500 5499 5498 5498 5497 5496 5496 5495 5496 5497
5501 5501 5502 5502 5501 5502 5501 5498 5493 5496 5496 5497 5498 5500 5499 5496 5494 5494 5495 5496 5497 5497 5502 5506 5505 5505 5505 5504 5503 5502 5501 5499 5497 5497 5496 5495 5494 5494 5494 5495 5496 5496 5496
5500 5500 5502 5503 5503 5503 5503 5503 5499 5493 5492 5492 5493 5493 5493 5491 5491 5491 5492 5493 5494 5495 5502 5503 5502 5501 5501 5501 5500 5500 5498 5496 5493 5494 5493 5493 5492 5493 5493 5494 5495 5495 5496
5501 5499 5501 5502 5504 5505 5505 5505 5505 5504 5501 5497 5492 5490 5490 5490 5490 5491 5492 5492 5499 5500 5503 5502 5501 5500 5500 5499 5499 5497 5496 5495 5494 5493 5492 5491 5491 5491 5492 5493 5495 5494 5495
5503 5503 5503 5504 5506 5506 5507 5507 5507 5506 5505 5502 5500 5495 5491 5491 5491 5492 5494 5502 5505 5504 5504 5502 5501 5500 5499 5498 5497 5495 5494 5493 5492 5491 5491 5490 5490 5491 5492 5493 5495 5493 5493
5503 5500 5503 5507 5508 5508 5509 5509 5509 5509 5508 5507 5506 5505 5502 5502 5504 5503 5503 5505 5506 5505 5504 5503 5501 5499 5499 5498 5497 5496 5496 5494 5492 5493 5492 5491 5491 5491 5492 5493 5495 5496 5497
5508 5504 5502 5509 5511 5511 5512 5512 5512 5512 5512 5511 5511 5506 5500 5509 5510 5508 5508 5508 5507 5506 5505 5504 5503 5502 5501 5500 5500 5498 5496 5496 5494 5494 5493 5493 5493 5493 5493 5495 5496 5497 5498
5513 5513 5513 5514 5513 5514 5515 5516 5516 5516 5515 5514 5514 5510 5504 5510 5514 5513 5512 5510 5509 5508 5507 5505 5507 5505 5503 5502 5500 5499 5498 5497 5496 5494 5494 5494 5494 5495 5496 5497 5498 5499 5499
5517 5518 5517 5518 5518 5513 5518 5520 5521 5521 5520 5520 5520 5519 5517 5518 5518 5516 5515 5514 5512 5511 5509 5508 5507 5508 5505 5501 5499 5498 5499 5498 5496 5493 5492 5494 5495 5496 5497 5497 5498 5498 5500
5523 5524 5523 5523 5523 5524 5525 5525 5526 5526 5526 5525 5525 5524 5524 5522 5521 5520 5519 5518 5516 5515 5514 5512 5511 5509 5505 5503 5501 5501 5499 5496 5493 5494 5492 5493 5494 5496 5497 5497 5498 5499 5499
5530 5529 5529 5529 5529 5530 5531 5531 5532 5531 5531 5530 5530 5530 5529 5528 5527 5526 5524 5523 5521 5520 5518 5516 5514 5512 5510 5507 5506 5504 5500 5496 5494 5493 5492 5493 5495 5495 5496 5497 5498 5498 5498
5537 5536 5536 5536 5536 5537 5538 5538 5537 5537 5537 5536 5536 5535 5534 5534 5533 5532 5530 5528 5527 5526 5523 5522 5519 5517 5514 5512 5510 5506 5503 5500 5497 5495 5493 5494 5496 5497 5497 5498 5498 5498 5498